Zurück zum Katalog

STARLINK-5865

AktivKommunikationVLEO
NORAD 57053·PAYLOAD·🇺🇸 United States

Gestartet Jun 22, 2023 von Vandenberg Space Force Base

Loading…

Nächste Überflüge (nächste 24 Stunden)

TLE

AktuellSource: CelesTrak SupGP

Epoche: Sep 14, 2026, 14:36 UTC

1 57053C 23088F   26257.60881944  .00028302  00000+0  10252-2 0  2576
2 57053  43.0015 123.8888 0001353 254.0390  99.2053 15.27559458    18

Verfolge STARLINK-5865 in Echtzeit mit AllMySat

Download on the App Store